GW6542 Weather Reports


time (UTC)temp
C
wind
direction
speed
KPH
gust
KPH
rain 1hr
cm
rain 24hr
cm
rain mn
cm
humidity
%
barometer
mb
20260505181554 15 333 0.0 3.2 0.00 0.00 0.00 75 1016.9
20260505180100 14 0 0.0 3.2 0.00 0.00 0.00 76 1016.9
20260505174552 14 288 1.6 4.8 0.00 0.00 0.00 76 1016.7
20260505173110 14 306 1.6 4.8 0.00 0.00 0.00 76 1016.7
20260505171605 13 0 0.0 6.4 0.00 0.00 0.00 77 1016.6
20260505170049 13 194 0.0 3.2 0.00 0.00 0.00 77 1016.6
20260505164558 13 0 1.6 4.8 0.00 0.00 0.00 78 1016.6
20260505163053 13 234 1.6 4.8 0.00 0.00 0.00 79 1016.5
20260505161555 12 0 1.6 4.8 0.00 0.00 0.00 81 1016.5
20260505153053 12 0 0.0 3.2 0.00 0.00 0.00 82 1016.3
20260505151553 12 202 0.0 3.2 0.00 0.00 0.00 83 1016.4
20260505150108 12 240 1.6 6.4 0.00 0.00 0.00 83 1016.4
20260505124556 12 0 1.6 6.4 0.00 0.00 0.00 84 1015.2
20260505123056 12 184 3.2 6.4 0.00 0.00 0.00 83 1015.2
20260505121620 12 256 3.2 6.4 0.00 0.00 0.00 83 1015.2
20260505120053 12 234 3.2 11.3 0.00 0.00 0.00 83 1015.2
20260505114550 12 219 4.8 9.7 0.00 0.00 0.00 83 1015.1
20260505113057 12 248 3.2 9.7 0.00 0.00 0.00 82 1015.0
20260505111554 12 215 4.8 11.3 0.00 0.00 0.00 83 1015.0
20260505101551 12 194 1.6 6.4 0.00 0.00 0.00 84 1014.7
20260505100123 11 227 4.8 8.0 0.00 0.00 0.00 84 1014.7
20260505094548 12 250 4.8 9.7 0.00 0.00 0.00 84 1014.7
20260505093049 12 227 4.8 11.3 0.00 0.00 0.00 84 1014.6
20260505091615 11 202 3.2 8.0 0.00 0.00 0.00 85 1014.6
20260505090100 11 165 3.2 6.4 0.00 0.00 0.00 85 1014.5
20260505084550 11 197 1.6 4.8 0.00 0.00 0.00 85 1014.4
20260505083054 11 192 1.6 8.0 0.00 0.00 0.00 84 1014.4
20260505081552 11 245 1.6 6.4 0.00 0.00 0.00 85 1014.3
20260505080054 11 229 3.2 8.0 0.00 0.00 0.00 85 1014.3
20260505074553 11 206 3.2 9.7 0.00 0.00 0.00 84 1014.2
20260505073058 11 197 3.2 8.0 0.00 0.00 0.00 84 1014.0
20260505071552 12 191 3.2 8.0 0.00 0.00 0.00 84 1013.9
20260505070052 12 190 1.6 8.0 0.00 0.00 0.00 83 1013.8
20260505064552 12 186 3.2 8.0 0.00 0.00 0.00 83 1013.7
20260505063054 12 218 1.6 4.8 0.00 0.00 0.00 83 1013.6
20260505061549 12 246 6.4 11.3 0.00 0.00 0.00 83 1013.6
20260505060056 12 242 6.4 12.9 0.00 0.00 0.00 83 1013.5
20260505054616 12 228 9.7 16.1 0.00 0.00 0.00 82 1013.6
20260505053053 12 246 14.5 20.9 0.00 0.00 0.00 81 1013.3
20260505051552 12 243 16.1 25.7 0.00 0.00 0.00 79 1013.3
20260505041601 13 273 19.3 25.7 0.00 0.00 0.00 76 1012.6
20260505040052 13 217 14.5 22.5 0.00 0.00 0.00 76 1012.3
20260505034553 14 257 14.5 24.1 0.00 0.00 0.00 74 1012.2
20260505033053 15 254 16.1 24.1 0.00 0.00 0.00 73 1012.0
20260505031555 15 230 11.3 24.1 0.00 0.00 0.00 71 1011.8
20260505030107 16 255 9.7 22.5 0.00 0.00 0.00 69 1011.5
20260505024607 17 279 11.3 25.7 0.00 0.00 0.00 68 1011.2
20260505023104 18 252 9.7 22.5 0.00 0.00 0.00 67 1011.0
20260505021601 18 244 12.9 22.5 0.00 0.00 0.00 65 1011.0
20260505014556 20 242 12.9 19.3 0.00 0.00 0.00 63 1011.0
20260505013056 21 259 11.3 19.3 0.00 0.00 0.00 61 1011.0
20260505011557 21 282 12.9 22.5 0.00 0.00 0.00 60 1011.0
20260505010108 22 276 11.3 19.3 0.00 0.00 0.00 58 1011.1
20260505004553 22 227 6.4 17.7 0.00 0.00 0.00 57 1011.1
20260505003104 22 190 8.0 12.9 0.00 0.00 0.00 57 1011.1
20260505001556 22 210 4.8 14.5 0.00 0.00 0.00 57 1011.0
20260505000100 22 112 4.8 16.1 0.00 0.00 0.00 61 1011.3
20260504234554 22 163 9.7 17.7 0.00 0.00 0.00 61 1011.4
20260504233054 22 140 9.7 17.7 0.00 0.00 0.00 60 1011.5
20260504231551 22 148 8.0 16.1 0.00 0.00 0.00 60 1011.5
20260504230109 21 157 8.0 17.7 0.00 0.00 0.00 62 1011.8
20260504224606 21 160 8.0 19.3 0.00 0.00 0.00 61 1011.9
20260504223051 21 172 11.3 20.9 0.00 0.00 0.00 62 1012.0
20260504221551 20 125 8.0 20.9 0.00 0.00 0.00 62 1012.2
20260504220057 20 180 6.4 16.1 0.00 0.00 0.00 62 1012.3
20260504214550 20 134 6.4 19.3 0.00 0.00 0.00 63 1012.5
20260504213058 20 148 9.7 19.3 0.00 0.00 0.00 62 1012.8
20260504211557 19 107 9.7 16.1 0.00 0.00 0.00 64 1012.9
20260504210104 19 146 12.9 20.9 0.00 0.00 0.00 64 1013.1
20260504204602 18 155 9.7 17.7 0.00 0.00 0.00 67 1013.4
20260504203049 18 121 8.0 17.7 0.00 0.00 0.00 67 1013.6
20260504201552 18 128 8.0 17.7 0.00 0.00 0.00 67 1013.6
20260504194559 17 165 6.4 17.7 0.00 0.00 0.00 68 1013.9
20260504193056 17 169 11.3 17.7 0.00 0.00 0.00 69 1013.9
20260504191619 16 138 11.3 24.1 0.00 0.00 0.00 71 1014.0
20260504190101 16 212 8.0 16.1 0.00 0.00 0.00 72 1014.1
20260504184555 16 190 9.7 14.5 0.00 0.00 0.00 73 1014.2
20260504183050 15 178 12.9 20.9 0.00 0.00 0.00 74 1014.1